Location: Sawmill Trailhead
(33.5800°N, 116.4497°W)
Time: 07:46:33
(UTC-07:00)

Uosat F - Visible Passes

Search period start: 29 July 2014 00:00
Search period end: 08 August 2014 00:00
Orbit: 752 x 762 km, 98.7° (Epoch: 29 July)

Date Brightness Start Highest point End Pass type
(mag) Time Alt. Az. Time Alt. Az. Time Alt. Az.
29 Jul 13.7 03:49:18 10° ENE 03:51:36 13° E 03:53:54 10° ESE visible
29 Jul 11.3 05:25:47 10° N 05:30:40 55° WNW 05:35:32 10° SSW visible
30 Jul 11.7 04:46:41 10° NNE 04:51:37 57° E 04:56:31 10° S visible
31 Jul 13.3 04:08:32 10° NE 04:12:22 22° E 04:16:11 10° SE visible
01 Aug 11.1 05:07:12 10° NNE 05:12:14 87° WNW 05:17:13 10° SSW visible
02 Aug 12.5 04:28:30 10° NNE 04:33:05 35° E 04:37:37 10° SSE visible
03 Aug 13.7 03:51:16 10° ENE 03:53:43 14° E 03:56:10 10° ESE visible
03 Aug 11.3 05:27:54 10° N 05:32:46 53° WNW 05:37:36 10° SSW visible
04 Aug 11.6 04:48:47 10° NNE 04:53:44 59° ESE 04:58:38 10° S visible
05 Aug 13.2 04:10:35 10° NE 04:14:29 23° E 04:18:21 10° SSE visible
06 Aug 11.0 05:09:18 10° NNE 05:14:19 84° WNW 05:19:18 10° SSW visible
07 Aug 12.4 04:30:34 10° NNE 04:35:11 37° E 04:39:46 10° SSE visible
